Miscellaneous Local Product
Issued by NWS Hastings, NE

Home | Current Version | Previous Version | Text Only | Print | Product List | Glossary Off
Versions: 1 2 3 4 5 6 7 8 9 10 11 12 13 14 15 16 17 18 19 20 21 22 23 24 25 26 27 28 29 30 31 32 33 34 35 36 37 38 39 40 41 42 43 44 45 46 47 48 49 50

000
AXUS43 KGID 010402
MISGRI

GID CWA HOURLY WEATHER ROUNDUP
NATIONAL WEATHER SERVICE HASTINGS NE
1100 PM CDT FRI JUL 31 2015

NOTE: "FAIR" INDICATES FEW OR NO CLOUDS BELOW 12,000 FEET WITH NO
SIGNIFICANT WEATHER AND/OR OBSTRUCTIONS TO VISIBILITY.

...SOUTH CENTRAL NEBRASKA...

CITY           SKY/WX    TMP DP  RH WIND       PRES   REMARKS
GRAND ISLAND   PTCLDY    68  63  84 S6        30.11R
HASTINGS       MOCLDY    70  62  76 W6        30.13R
KEARNEY        CLEAR     66  57  72 SE6       30.13S
ORD            CLEAR     65  63  93 SW3       30.11R
YORK           PTCLDY    64  63  94 SW8       30.08S
AURORA         MOCLDY    67  64  89 SW7       30.09S
LEXINGTON      CLEAR     72  60  67 SE10      30.14R
HOLDREGE       CLEAR     67  60  79 CALM      30.13S
HEBRON         MOCLDY    72  62  69 SW7       30.09S

...NEBRASKA PANHANDLE...

CITY           SKY/WX    TMP DP  RH WIND       PRES   REMARKS
CHADRON        PTCLDY    70  55  59 CALM      30.11R
ALLIANCE       CLEAR     67  55  65 SE6       30.16R
SCOTTSBLUFF    CLEAR     69  58  67 E6        30.16R
SIDNEY         CLEAR     67  52  58 SE9       30.21R

...WESTERN AND NORTH CENTRAL NEBRASKA...

CITY           SKY/WX    TMP DP  RH WIND       PRES   REMARKS
VALENTINE      CLEAR     75  61  61 NE7       30.12R
AINSWORTH      CLEAR     69  62  78 SE6       30.14R
ONEILL         CLEAR     72  67  83 CALM      30.12R
BROKEN BOW     CLEAR     70  62  76 CALM      30.14R
IMPERIAL       CLEAR     72  59  63 S3        30.14R
NORTH PLATTE   CLEAR     70  61  73 E15       30.14R
MCCOOK         CLEAR     79  61  53 S6        30.11R

...EASTERN NEBRASKA...

CITY           SKY/WX    TMP DP  RH WIND       PRES   REMARKS
NORFOLK        CLEAR     66  61  84 CALM      30.09R
SO SIOUX CITY  CLEAR     75  66  73 E7        30.08R
TEKAMAH        PTCLDY    69  67  93 W6        30.07R
COLUMBUS       CLEAR     61  55  82 CALM      30.10R
ALBION         CLEAR     64  61  91 CALM      30.11R
OMAHA EPPLEY   PTCLDY    78  67  68 E5        30.05S
OFFUTT AFB     CLEAR     71  67  88 S3        30.06R
MILLARD        CLEAR     76  67  75 CALM      30.06R
LINCOLN        CLEAR     72  65  78 N3        30.08R
NEBRASKA CITY  CLEAR     68  63  85 SE3       30.08R
BEATRICE       PTCLDY    73  67  82 N3        30.08R
FALLS CITY     PTCLDY    78  74  87 E3        30.07R

...NORTHERN KANSAS...

CITY           SKY/WX    TMP DP  RH WIND       PRES   REMARKS
GOODLAND       CLEAR     74  56  53 S14       30.19R
HILL CITY      CLEAR     78  62  57 S6        30.12R
NORTON         CLEAR     75  55  50 S9        30.11R
PHILLIPSBURG   CLEAR     77  64  65 E8        30.12R
SMITH CENTER   CLEAR     72  63  73 E10       30.11S
HAYS           CLEAR     73  61  64 SE8       30.13R
RUSSELL        CLEAR     76  67  73 S9        30.11R
CONCORDIA      MOCLDY    74  64  71 W7        30.11R
SALINA         CLEAR     77  69  76 S3        30.09R
TOPEKA         CLEAR     76  74  93 CALM      30.07R



USA.gov is the U.S. government's official web portal to all federal, state and local government web resources and services.